This demonstration page uses our WeatherBlox Daily Observations layout. Learn more.

Left ArrowRight Arrow

44.8408, -93.29828

Hourly Observations for October 21, 2021

Temp ( °F °C ) Dew Point ( °F °C ) Humidity (%) Winds ( mph kmh ) Pressure ( in mb ) Visibility ( mi km ) Precip ( " mm )
12:53 am 00:53 Cloudy with Light Rain 48 8.9 46 7.8 93 93 N 12 19 29.85 1011 8 13 0.07 1.78
1:53 am 01:53 Cloudy with Light Rain 47 8.3 45 7.2 93 93 N 13 20 29.86 1011 5 8 0.06 1.52
2:53 am 02:53 Cloudy with Mist and Fog 46 7.8 43 6.1 89 89 N 20 31 29.88 1012 5 8 0.00 0.00
3:15 am 03:15 Cloudy with Mist and Fog 45 7.2 43 6.1 93 93 N 16 26 29.90 1013 6 10 0.00 0.00
3:25 am 03:25 Cloudy with Mist and Fog 45 7.2 42 5.6 90 90 N 16 26 29.91 1013 6 10 0.00 0.00
3:53 am 03:53 Cloudy 45 7.2 42 5.6 90 90 N 18 30 29.91 1013 10 16 0.00 0.00
4:15 am 04:15 Cloudy 45 7.2 42 5.6 90 90 N 15 24 29.93 1014 10 16 0.00 0.00
4:53 am 04:53 Cloudy 45 7.2 42 5.6 90 90 N 15 24 29.93 1014 10 16 0.00 0.00
5:45 am 05:45 Cloudy with Drizzle 44 6.7 41 5 89 89 N 14 22 29.96 1015 8 13 0.00 0.00
5:53 am 05:53 Cloudy with Drizzle 44 6.7 41 5 89 89 N 12 19 29.96 1015 8 13 0.00 0.00
6:31 am 06:31 Cloudy 44 6.7 40 4.4 85 85 N 15 24 29.99 1016 10 16 0.00 0.00
6:53 am 06:53 Cloudy 44 6.7 40 4.4 85 85 N 16 26 29.99 1016 10 16 0.00 0.00
7:53 am 07:53 Cloudy 44 6.7 40 4.4 85 85 N 14 22 30.01 1016 10 16 0.00 0.00
8:53 am 08:53 Cloudy 44 6.7 39 3.9 83 83 N 14 22 30.06 1018 10 16 0.00 0.00
9:14 am 09:14 Cloudy 44 6.7 39 3.9 83 83 N 13 20 30.08 1019 10 16 0.00 0.00
9:26 am 09:26 Cloudy 44 6.7 39 3.9 83 83 N 13 20 30.09 1019 10 16 0.00 0.00
9:53 am 09:53 Cloudy 43 6.1 38 3.3 82 82 N 14 22 30.10 1019 10 16 0.00 0.00
10:16 am 10:16 Cloudy 44 6.7 37 2.8 76 76 N 13 20 30.12 1020 10 16 0.00 0.00
10:53 am 10:53 Cloudy 44 6.7 36 2.2 73 73 NNW 14 22 30.12 1020 10 16 0.00 0.00
11:35 am 11:35 Mostly Cloudy 47 8.3 36 2.2 66 66 N 9 15 30.13 1020 10 16 0.00 0.00
11:53 am 11:53 Partly Cloudy 46 7.8 34 1.1 63 63 N 8 13 30.11 1020 10 16 0.00 0.00
12:53 pm 12:53 Mostly Cloudy 48 8.9 32 0 54 54 N 12 19 30.11 1020 10 16 0.00 0.00
1:53 pm 13:53 Mostly Cloudy 50 10 30 -1.1 46 46 N 16 26 30.11 1020 10 16 0.00 0.00
2:53 pm 14:53 Mostly Cloudy 50 10 29 -1.7 44 44 NNW 14 22 30.11 1020 10 16 0.00 0.00
3:53 pm 15:53 Sunny 50 10 28 -2.2 43 43 N 12 19 30.11 1020 10 16 0.00 0.00
4:53 pm 16:53 Sunny 50 10 27 -2.8 41 41 NNW 8 13 30.12 1020 10 16 0.00 0.00
5:53 pm 17:53 Mostly Cloudy 48 8.9 28 -2.2 46 46 NNW 10 17 30.13 1020 10 16 0.00 0.00
6:53 pm 18:53 Mostly Cloudy 45 7.2 28 -2.2 52 52 NNW 6 9 30.15 1021 10 16 0.00 0.00
7:53 pm 19:53 Mostly Cloudy 42 5.6 30 -1.1 62 62 NW 7 11 30.15 1021 10 16 0.00 0.00
8:53 pm 20:53 Mostly Cloudy 42 5.6 30 -1.1 62 62 VRB 7 11 30.15 1021 10 16 0.00 0.00
9:53 pm 21:53 Mostly Clear 40 4.4 29 -1.7 65 65 NW 5 7 30.15 1021 10 16 0.00 0.00
10:53 pm 22:53 Mostly Clear 39 3.9 30 -1.1 70 70 WNW 5 7 30.15 1021 10 16 0.00 0.00
11:53 pm 23:53 Mostly Clear 38 3.3 31 -0.6 76 76 NNW 3 6 30.14 1021 10 16 0.00 0.00

Powered by AerisWeather